CSCL Fuzhou — ELYA7 — position and weather

sailwx.info

Track history (hours):
 
Tides and Currents Weather Stations Pressure Air Temp Water Temp Dewpoint Dewpoint Depression Visibility Wind Speed Wind Dir Waves Ship Positions

CSCL Fuzhou

Last reported at 2017-Dec-10 09:18 UTC. Time now 2017-Dec-11 02:02 UTC.
Position N 25°47' E 121°37'.

Length 207.4 m; beam 29.8 m; draft 11.4 m.

Type: Ship (hazmat cat A). MMSI: 636016483.

Date/timePositionNaut miles runAvg speedWind from/ knotsBaromVisibWave heightAir tempDewpointWater temp
2017-Dec-10 09:18N 25°47' E 121°37'517.8
2017-Dec-10 09:00N 25°43' E 121°33'917.5
2017-Dec-10 08:30N 25°35' E 121°28'917.5
2017-Dec-10 07:59N 25°27' E 121°24'817.0
2017-Dec-10 07:30N 25°20' E 121°18'816.9
2017-Dec-10 07:01N 25°12' E 121°19'4 7.5
2017-Dec-10 06:25N 25°10' E 121°23'0 0.0
2017-Dec-10 05:52N 25°10' E 121°23'0 0.0
2017-Dec-10 05:28N 25°10' E 121°23'0 0.0
2017-Dec-10 04:58N 25°10' E 121°23'0 0.0
2017-Dec-10 04:22N 25°10' E 121°23'0 0.0
2017-Dec-10 03:55N 25°10' E 121°23'0 0.0
2017-Dec-10 03:25N 25°10' E 121°23'0 0.0
2017-Dec-10 02:58N 25°10' E 121°23'0 0.0
2017-Dec-10 02:19N 25°10' E 121°23'0 0.2
2017-Dec-10 02:00N 25°10' E 121°23'3 5.1
2017-Dec-10 01:30N 25°09' E 121°20'2 4.2
2017-Dec-10 01:00N 25°11' E 121°18'1 2.1
2017-Dec-10 00:30N 25°11' E 121°18'5 9.7
2017-Dec-10 00:00N 25°15' E 121°15'2 4.7
2017-Dec-09 23:30N 25°16' E 121°17'2 4.2
2017-Dec-09 22:59N 25°17' E 121°19'2 3.5
2017-Dec-09 22:30N 25°17' E 121°17'2 3.2
2017-Dec-09 22:00N 25°16' E 121°16'2 3.3
2017-Dec-09 21:30N 25°16' E 121°14'4 8.0
2017-Dec-09 21:00N 25°15' E 121°10'816.1
2017-Dec-09 20:30N 25°11' E 121°02'1119.3
2017-Dec-09 19:56N 25°03' E 120°54'101 5.7
2017-Dec-09 02:18N 23°37' E 119°55'517.5
2017-Dec-09 02:01N 23°32' E 119°54'917.2
2017-Dec-09 01:31N 23°24' E 119°52'917.1
2017-Dec-09 00:57N 23°14' E 119°53'817.0
2017-Dec-09 00:30N 23°07' E 119°53'816.9
2017-Dec-09 00:01N 22°59' E 119°57'917.6
2017-Dec-08 23:31N 22°51' E 120°01'918.0
2017-Dec-08 23:00N 22°43' E 120°07'918.0
2017-Dec-08 22:30N 22°36' E 120°12'713.3
2017-Dec-08 22:01N 22°33' E 120°18'1 3.0
2017-Dec-08 21:30N 22°33' E 120°20'0 0.0
2017-Dec-08 21:00N 22°33' E 120°20'0 0.0
2017-Dec-08 20:30N 22°33' E 120°20'0 0.0
2017-Dec-08 20:00N 22°33' E 120°20'0 0.0
2017-Dec-08 19:30N 22°33' E 120°20'0 0.0
2017-Dec-08 19:00N 22°33' E 120°20'0 0.0
2017-Dec-08 18:30N 22°33' E 120°20'0 0.0
2017-Dec-08 18:00N 22°33' E 120°20'0 0.0
2017-Dec-08 17:30N 22°33' E 120°20'0 0.0
2017-Dec-08 16:54N 22°33' E 120°20'0 0.0
2017-Dec-08 16:30N 22°33' E 120°20'0 0.0
2017-Dec-08 16:00N 22°33' E 120°20'0 0.0
2017-Dec-08 15:30N 22°33' E 120°20'0 0.0
2017-Dec-08 15:00N 22°33' E 120°20'0 0.0
2017-Dec-08 14:30N 22°33' E 120°20'0 0.0
2017-Dec-08 14:00N 22°33' E 120°20'0 0.0
2017-Dec-08 13:30N 22°33' E 120°20'0 0.0
2017-Dec-08 13:00N 22°33' E 120°20'0 0.0
2017-Dec-08 12:30N 22°33' E 120°20'0 0.0
2017-Dec-08 12:00N 22°33' E 120°20'0 0.0
2017-Dec-08 11:30N 22°33' E 120°20'0 0.0
2017-Dec-08 10:57N 22°33' E 120°20'0 0.0
2017-Dec-08 10:27N 22°33' E 120°20'0 0.0
2017-Dec-08 10:00N 22°33' E 120°20'0 0.0
2017-Dec-08 09:30N 22°33' E 120°20'0 0.0
2017-Dec-08 09:00N 22°33' E 120°20'0 0.0
2017-Dec-08 08:30N 22°33' E 120°20'0 0.0
2017-Dec-08 08:00N 22°33' E 120°20'0 0.0
2017-Dec-08 07:30N 22°33' E 120°20'0 0.0
2017-Dec-08 06:57N 22°33' E 120°20'0 0.0
2017-Dec-08 06:27N 22°33' E 120°20'0 0.0
2017-Dec-08 05:51N 22°33' E 120°20'0 0.0
2017-Dec-08 05:21N 22°33' E 120°20'0 0.0
2017-Dec-08 04:57N 22°33' E 120°20'0 0.0
2017-Dec-08 04:27N 22°33' E 120°20'0 0.0
2017-Dec-08 03:58N 22°33' E 120°20'2 4.4
2017-Dec-08 03:30N 22°33' E 120°18'3 5.3
2017-Dec-08 03:00N 22°32' E 120°15'3 6.7
2017-Dec-08 02:30N 22°31' E 120°12'714.2
2017-Dec-08 02:00N 22°30' E 120°04'816.4
2017-Dec-08 01:30N 22°29' E 119°55'815.2
2017-Dec-08 01:00N 22°28' E 119°47'  
2017-Dec-01 03:49N 01°13' E 103°56'618.5
2017-Dec-01 03:30N 01°11' E 103°51'917.8
2017-Dec-01 03:00N 01°06' E 103°44'714.3
2017-Dec-01 02:30N 01°03' E 103°38'917.5
2017-Dec-01 02:01N 01°10' E 103°33'612.8
2017-Dec-01 01:30N 01°16' E 103°33'510.9
2017-Dec-01 01:01N 01°22' E 103°33'0 0.3
2017-Dec-01 00:30N 01°22' E 103°33'0 0.0
2017-Nov-30 23:57N 01°22' E 103°33'0 0.0
2017-Nov-30 23:21N 01°22' E 103°33'0 0.0
2017-Nov-30 22:54N 01°22' E 103°33'0 0.0
2017-Nov-30 22:27N 01°22' E 103°33'0 0.0
2017-Nov-30 21:54N 01°22' E 103°33'0 0.0
2017-Nov-30 21:27N 01°22' E 103°33'0 0.0
2017-Nov-30 20:57N 01°22' E 103°33'0 0.0
2017-Nov-30 20:27N 01°22' E 103°33'0 0.0
2017-Nov-30 19:54N 01°22' E 103°33'0 0.0
2017-Nov-30 19:30N 01°22' E 103°33'0 0.0
2017-Nov-30 18:57N 01°22' E 103°33'0 0.0
2017-Nov-30 18:24N 01°22' E 103°33'0 0.0
2017-Nov-30 17:45N 01°22' E 103°33'0 0.0
2017-Nov-30 17:27N 01°22' E 103°33'0 0.0
2017-Nov-30 16:42N 01°22' E 103°33'0 0.0
2017-Nov-30 16:24N 01°22' E 103°33'0 0.0
2017-Nov-30 15:51N 01°22' E 103°33'0 0.0
2017-Nov-30 15:27N 01°22' E 103°33'0 0.0
2017-Nov-30 14:36N 01°22' E 103°33'0 0.0
2017-Nov-30 14:27N 01°22' E 103°33'0 0.1
2017-Nov-30 13:58N 01°22' E 103°33'2 3.5
2017-Nov-30 13:30N 01°20' E 103°33'5 9.5
2017-Nov-30 13:01N 01°16' E 103°33'4 7.3
2017-Nov-30 12:31N 01°12' E 103°32'4 8.1
2017-Nov-30 12:01N 01°10' E 103°28'815.4
2017-Nov-30 11:29N 01°15' E 103°22'  
Track history (hours):
 
Tides and Currents Weather Stations Pressure Air Temp Water Temp Dewpoint Dewpoint Depression Visibility Wind Speed Wind Dir Waves Ship Positions

CSCL Fuzhou

Last reported at 2017-Dec-10 09:18 UTC. Time now 2017-Dec-11 02:02 UTC.
Position N 25°47' E 121°37'.

Length 207.4 m; beam 29.8 m; draft 11.4 m.

Type: Ship (hazmat cat A). MMSI: 636016483.

Date/timePositionNaut miles runAvg speedWind from/ knotsBaromVisibWave heightAir tempDewpointWater temp
2017-Dec-10 09:18N 25°47' E 121°37'517.8
2017-Dec-10 09:00N 25°43' E 121°33'917.5
2017-Dec-10 08:30N 25°35' E 121°28'917.5
2017-Dec-10 07:59N 25°27' E 121°24'817.0
2017-Dec-10 07:30N 25°20' E 121°18'816.9
2017-Dec-10 07:01N 25°12' E 121°19'4 7.5
2017-Dec-10 06:25N 25°10' E 121°23'0 0.0
2017-Dec-10 05:52N 25°10' E 121°23'0 0.0
2017-Dec-10 05:28N 25°10' E 121°23'0 0.0
2017-Dec-10 04:58N 25°10' E 121°23'0 0.0
2017-Dec-10 04:22N 25°10' E 121°23'0 0.0
2017-Dec-10 03:55N 25°10' E 121°23'0 0.0
2017-Dec-10 03:25N 25°10' E 121°23'0 0.0
2017-Dec-10 02:58N 25°10' E 121°23'0 0.0
2017-Dec-10 02:19N 25°10' E 121°23'0 0.2
2017-Dec-10 02:00N 25°10' E 121°23'3 5.1
2017-Dec-10 01:30N 25°09' E 121°20'2 4.2
2017-Dec-10 01:00N 25°11' E 121°18'1 2.1
2017-Dec-10 00:30N 25°11' E 121°18'5 9.7
2017-Dec-10 00:00N 25°15' E 121°15'2 4.7
2017-Dec-09 23:30N 25°16' E 121°17'2 4.2
2017-Dec-09 22:59N 25°17' E 121°19'2 3.5
2017-Dec-09 22:30N 25°17' E 121°17'2 3.2
2017-Dec-09 22:00N 25°16' E 121°16'2 3.3
2017-Dec-09 21:30N 25°16' E 121°14'4 8.0
2017-Dec-09 21:00N 25°15' E 121°10'816.1
2017-Dec-09 20:30N 25°11' E 121°02'1119.3
2017-Dec-09 19:56N 25°03' E 120°54'101 5.7
2017-Dec-09 02:18N 23°37' E 119°55'517.5
2017-Dec-09 02:01N 23°32' E 119°54'917.2
2017-Dec-09 01:31N 23°24' E 119°52'917.1
2017-Dec-09 00:57N 23°14' E 119°53'817.0
2017-Dec-09 00:30N 23°07' E 119°53'816.9
2017-Dec-09 00:01N 22°59' E 119°57'917.6
2017-Dec-08 23:31N 22°51' E 120°01'918.0
2017-Dec-08 23:00N 22°43' E 120°07'918.0
2017-Dec-08 22:30N 22°36' E 120°12'713.3
2017-Dec-08 22:01N 22°33' E 120°18'1 3.0
2017-Dec-08 21:30N 22°33' E 120°20'0 0.0
2017-Dec-08 21:00N 22°33' E 120°20'0 0.0
2017-Dec-08 20:30N 22°33' E 120°20'0 0.0
2017-Dec-08 20:00N 22°33' E 120°20'0 0.0
2017-Dec-08 19:30N 22°33' E 120°20'0 0.0
2017-Dec-08 19:00N 22°33' E 120°20'0 0.0
2017-Dec-08 18:30N 22°33' E 120°20'0 0.0
2017-Dec-08 18:00N 22°33' E 120°20'0 0.0
2017-Dec-08 17:30N 22°33' E 120°20'0 0.0
2017-Dec-08 16:54N 22°33' E 120°20'0 0.0
2017-Dec-08 16:30N 22°33' E 120°20'0 0.0
2017-Dec-08 16:00N 22°33' E 120°20'0 0.0
2017-Dec-08 15:30N 22°33' E 120°20'0 0.0
2017-Dec-08 15:00N 22°33' E 120°20'0 0.0
2017-Dec-08 14:30N 22°33' E 120°20'0 0.0
2017-Dec-08 14:00N 22°33' E 120°20'0 0.0
2017-Dec-08 13:30N 22°33' E 120°20'0 0.0
2017-Dec-08 13:00N 22°33' E 120°20'0 0.0
2017-Dec-08 12:30N 22°33' E 120°20'0 0.0
2017-Dec-08 12:00N 22°33' E 120°20'0 0.0
2017-Dec-08 11:30N 22°33' E 120°20'0 0.0
2017-Dec-08 10:57N 22°33' E 120°20'0 0.0
2017-Dec-08 10:27N 22°33' E 120°20'0 0.0
2017-Dec-08 10:00N 22°33' E 120°20'0 0.0
2017-Dec-08 09:30N 22°33' E 120°20'0 0.0
2017-Dec-08 09:00N 22°33' E 120°20'0 0.0
2017-Dec-08 08:30N 22°33' E 120°20'0 0.0
2017-Dec-08 08:00N 22°33' E 120°20'0 0.0
2017-Dec-08 07:30N 22°33' E 120°20'0 0.0
2017-Dec-08 06:57N 22°33' E 120°20'0 0.0
2017-Dec-08 06:27N 22°33' E 120°20'0 0.0
2017-Dec-08 05:51N 22°33' E 120°20'0 0.0
2017-Dec-08 05:21N 22°33' E 120°20'0 0.0
2017-Dec-08 04:57N 22°33' E 120°20'0 0.0
2017-Dec-08 04:27N 22°33' E 120°20'0 0.0
2017-Dec-08 03:58N 22°33' E 120°20'2 4.4
2017-Dec-08 03:30N 22°33' E 120°18'3 5.3
2017-Dec-08 03:00N 22°32' E 120°15'3 6.7
2017-Dec-08 02:30N 22°31' E 120°12'714.2
2017-Dec-08 02:00N 22°30' E 120°04'816.4
2017-Dec-08 01:30N 22°29' E 119°55'815.2
2017-Dec-08 01:00N 22°28' E 119°47'  
2017-Dec-01 03:49N 01°13' E 103°56'618.5
2017-Dec-01 03:30N 01°11' E 103°51'917.8
2017-Dec-01 03:00N 01°06' E 103°44'714.3
2017-Dec-01 02:30N 01°03' E 103°38'917.5
2017-Dec-01 02:01N 01°10' E 103°33'612.8
2017-Dec-01 01:30N 01°16' E 103°33'510.9
2017-Dec-01 01:01N 01°22' E 103°33'0 0.3
2017-Dec-01 00:30N 01°22' E 103°33'0 0.0
2017-Nov-30 23:57N 01°22' E 103°33'0 0.0
2017-Nov-30 23:21N 01°22' E 103°33'0 0.0
2017-Nov-30 22:54N 01°22' E 103°33'0 0.0
2017-Nov-30 22:27N 01°22' E 103°33'0 0.0
2017-Nov-30 21:54N 01°22' E 103°33'0 0.0
2017-Nov-30 21:27N 01°22' E 103°33'0 0.0
2017-Nov-30 20:57N 01°22' E 103°33'0 0.0
2017-Nov-30 20:27N 01°22' E 103°33'0 0.0
2017-Nov-30 19:54N 01°22' E 103°33'0 0.0
2017-Nov-30 19:30N 01°22' E 103°33'0 0.0
2017-Nov-30 18:57N 01°22' E 103°33'0 0.0
2017-Nov-30 18:24N 01°22' E 103°33'0 0.0
2017-Nov-30 17:45N 01°22' E 103°33'0 0.0
2017-Nov-30 17:27N 01°22' E 103°33'0 0.0
2017-Nov-30 16:42N 01°22' E 103°33'0 0.0
2017-Nov-30 16:24N 01°22' E 103°33'0 0.0
2017-Nov-30 15:51N 01°22' E 103°33'0 0.0
2017-Nov-30 15:27N 01°22' E 103°33'0 0.0
2017-Nov-30 14:36N 01°22' E 103°33'0 0.0
2017-Nov-30 14:27N 01°22' E 103°33'0 0.1
2017-Nov-30 13:58N 01°22' E 103°33'2 3.5
2017-Nov-30 13:30N 01°20' E 103°33'5 9.5
2017-Nov-30 13:01N 01°16' E 103°33'4 7.3
2017-Nov-30 12:31N 01°12' E 103°32'4 8.1
2017-Nov-30 12:01N 01°10' E 103°28'815.4
2017-Nov-30 11:29N 01°15' E 103°22'  

Dump ship's entire track history